彩虹 20星 (RADUGA 20)

导读 | 豆包AI

RADUGA 20(虹-20)是苏联解体后独立国家联合体(CIS)继承自苏联航天体系的第一代“虹”系列地球同步轨道通信卫星,于1987年3月19日发射入轨,作为苏联/俄罗斯第一代固定通信卫星,它主要为东半球提供军事通信服务,同时承担民用电话电报、地面电视传输业务,属于KAUR-3平台,设计寿命3年,配备C频段转发器。

Basic Information
目录编号:
17611
目录名称:
RADUGA 20
国际标识:
1987-028A
轨道中心:
EARTH
卫星名称:
彩虹 20星
卫星全名:
彩虹 20星 (RADUGA 20)
卫星状态:
在轨 (已飞行14285 天)
发射日期:
1987-03-19 UTC
国别 :
俄罗斯(独联体) (CIS)
星等 :
--
Orbit Information
数据来源 国际轨道数据 AOE轨道数据
星历时间 2026-04-28T11:58:57+0800
17小时前
查看轨道信息
2026-04-23T08:00:00+0800
5天前
查看轨道信息
半长轴 43418.37km 43418.52km
偏心率 0.0026286 0.0026056
轨道倾角 13.370° 13.377°
近地点辐角 171.040° 170.568°
升交点赤经 328.719° 328.754°
平近点角 26.146° 41.938°
近地点 36926.103km 36927.251km
远地点 37154.363km 37153.515km
周期 1500.617分钟 1500.625分钟
每日圈数 0.959605 0.9596
Detailed Information
平衡模式:
三轴稳定
覆盖范围:
全球
运营商:
俄罗斯国家航天集团
运营商所在国:
俄罗斯
制造商(研发单位):
普里克拉德诺伊·梅哈尼基设计局
制造商所在国:
俄罗斯联邦
使用方式:
暂无
Satellite Introduction
彩虹卫星(Raduga, Gran)是苏联用于军事和通信目的的一系列地球静止通信卫星。彩虹卫星旨在支持军事通信、Orbita地面电视网络,并在整个东半球(极地地区除外)提供电话和电报通信。该卫星已退役。
2D Orbit Map
3D Orbit Map
Orbit Altitude Analysis Chart
Orbit Inclination Analysis Chart
Orbit Comprehensive Analysis Chart
View Comprehensive Chart